Location: Lecco
(45.8566°N, 9.3977°E)
Time: 12:21:38
(UTC+02:00)

Vanguard 2 Rocket - Visible Passes

Search period start: 07 August 2020 00:00
Search period end: 17 August 2020 00:00
Orbit: 556 x 3324 km, 32.9° (Epoch: 06 August)

Date Brightness Start Highest point End Pass type
(mag) Time Alt. Az. Time Alt. Az. Time Alt. Az.
07 Aug 9.6 00:44:36 10° W 00:57:18 37° SSW 00:59:40 36° S visible
07 Aug 10.4 03:02:04 10° WSW 03:05:19 14° WSW 03:05:19 14° WSW visible
07 Aug 9.0 21:32:08 10° WSW 21:41:13 45° S 21:56:13 10° ESE visible
07 Aug 9.4 23:44:43 10° WSW 23:56:16 41° SSW 00:01:56 34° SSE visible
08 Aug 10.1 02:00:04 10° W 02:07:37 23° SW 02:07:37 23° SW visible
08 Aug 9.2 22:45:14 10° WSW 22:55:28 43° S 23:04:25 25° SE visible
09 Aug 9.8 00:59:12 10° W 01:10:06 30° SSW 01:10:06 30° SSW visible
09 Aug 9.0 21:46:07 10° WSW 21:54:58 43° S 22:07:03 15° ESE visible
09 Aug 9.5 23:59:06 10° WSW 00:09:56 34° SSW 00:12:44 32° S visible
10 Aug 10.4 02:16:16 10° WSW 02:18:27 13° WSW 02:18:27 13° WSW visible
10 Aug 9.3 22:59:29 10° WSW 23:09:13 37° SSW 23:15:30 28° SSE visible
11 Aug 10.0 01:14:28 10° WSW 01:21:13 21° SW 01:21:13 21° SW visible
11 Aug 9.1 22:00:15 10° WSW 22:08:46 38° S 22:18:22 19° SE visible
12 Aug 9.8 00:13:52 10° WSW 00:23:37 26° SSW 00:24:06 26° SSW visible
12 Aug 8.8 21:01:19 10° WSW 21:08:40 38° S 21:20:46 10° ESE visible
12 Aug 9.5 23:13:59 10° WSW 23:23:00 30° SSW 23:27:03 26° S visible
13 Aug 10.3 01:31:22 10° WSW 01:32:47 12° SW 01:32:47 12° SW visible
13 Aug 9.2 22:14:35 10° WSW 22:22:38 32° SSW 22:30:06 20° SSE visible
14 Aug 10.0 00:29:29 10° WSW 00:35:50 18° SW 00:35:50 18° SW visible
14 Aug 9.0 21:15:32 10° WSW 21:22:33 33° S 21:33:14 11° SE visible
14 Aug 9.7 23:29:00 10° WSW 23:36:49 22° SSW 23:38:58 21° SSW visible
15 Aug 9.5 22:29:15 10° WSW 22:36:32 25° SSW 22:42:10 19° SSE visible
16 Aug 9.2 21:30:00 10° WSW 21:36:28 27° SSW 21:45:27 12° SE visible
16 Aug 10.0 23:45:19 10° SW 23:50:40 14° SSW 23:51:12 14° SSW visible
